World > North America > United States > Iowa

De Soto, Iowa Regional Weather

Lat: 41.53N, Lon: 94.01W
Wx Zone: IAZ059Web Search

Helpful Tip: Abbreviated, 7 Day, 14 Day Forecasts. There is a weather forecast for every taste.

Feedback


°F Click to change De Soto hourly weather to Imperial units.Click to change De Soto hourly weather to Metric units. °C
De Soto Weather Map
UTC Time: 5/9/2021, 23:00
Your Time:

De Soto, IA Regional Weather

Expires:202105092300;;860720
ASUS43 KDMX 092206
RWRIA 

WEATHER ROUNDUP FOR IOWA
NATIONAL WEATHER SERVICE DES MOINES IA
500 PM CDT SUN MAY 09 2021

NOTE: "FAIR" INDICATES FEW OR NO CLOUDS BELOW 12,000 FEET WITH NO
SIGNIFICANT WEATHER AND/OR OBSTRUCTIONS TO VISIBILITY.

* - THESE STATIONS ARE NOT NWS STATIONS...THUS NOT UNDER NWS
QUALITY CONTROL.  THEY ALSO DO NOT REPORT WEATHER SUCH 
AS PRECIPITATION OR FOG.  


IAZ047>049-059>061-072>074-084-092300-
   CENTRAL IOWA
  
CITY           SKY/WX    TMP DP  RH WIND       PRES   REMARKS
AMES           PTSUNNY   60  31  33 NW6       30.02S                  
ANKENY *       PTSUNNY   57  34  41 NE6       30.04R                  
BOONE *        PTSUNNY   57  32  38 CALM      30.05S                  
CHARITON *     PTSUNNY   57  37  47 NE9       30.02R                  
DES MOINES     PTSUNNY   59  33  37 NE9       30.03R                  
GRINNELL*      MOSUNNY   60  35  39 NE7       30.03S                  
KNOXVILLE *    MOSUNNY   59  32  36 NE12      30.02S                  
MARSHALLTOWN   PTSUNNY   58  34  40 E6        30.01S                  
NEWTON *       PTSUNNY   57  34  41 N7        30.01S                  
PELLA *        MOSUNNY   60  34  37 N5        30.03S                  
PERRY *        FAIR      59  33  37 N6        30.03F                  
$$
 

SKY/WX - Weather  TMP - Temperature  DP - Dew Point  RH - Relative Humidity
WIND - Wind Direction/Speed PRES - Barometric Pressure VSB - Visibility
WCI - Wind Chill Index E13G22 Wind - East Wind 13 mph/Gusts of 22 mph